SCP
0 0 0 0 0 0 0 0 0 0 0 0 0 0 0 0 0 0 0 0 0 0 0 0 0 0 0 0 0 0 0 0 0 0 0 0 0 0 0 0 0 0 0
0 0 0 0 0 0 0 0 0 0 0 0 0 0 0 0 0 0 0 0 0 0 0 0 0 0 0 0 0 0 0 0 0 0 0 0 0 0 0 0 0 0 0
0 0 0 0 0 0 0 0 0 0 0 0 0 0 0 0 0 0 0 0 0 0 0 0 0 0 0 0 0 0 0 0 0 0 0 0 0 0 0 0 0 0 0
0 0 0 0 0 0 0 0 0 0 0 0 0 0 0 0 0 0 0 0 0 0 0 0 0 0 0 0 0 0 0 0 0 0 0 0 0 0 0 0 0 0 0
0 0 0 0 0 0 0 0 0 0 0 0 0 0 0 0 0 0 0 0 0 0 0 0 0 0 0 0 0 0 0 0 0 0 0 0 0 0 0 0 0 0 0
0 0 0 0 0 0 0 0 0 0 0 0 0 0 0 0 0 0 0 0 0 0 0 0 0 0 0 0 0 0 0 0 0 0 0 0 0 0 0 0 0 0 0
0 0 0 0 0 0 0 0 0 0 0 0 0 0 0 0 0 0 0 0 0 0 0 0 0 0 0 0 0 0 0 0 0 0 0 0 0 0 0 0 0 0 0
0 0 0 0 0 0 0 0 0 0 0 0 0 0 0 0 0 0 0 0 0 0 0 0 0 0 0 0 0 0 0 0 0 0 0 0 0 0 0 0 0 0 0
0 0 0 0 0 0 0 0 0 0 0 0 0 0 0 0 0 0 0 0 0 0 0 0 0 0 0 0 0 0 0 0 0 0 0 0 0 0 0 0 0 0 0
0 0 0 0 0 0 0 0 0 0 0 0 0 0 0 0 0 0 0 0 0 0 0 0 0 0 0 0 0 0 0 0 0 0 0 0 0 0 0 0 0 0 0
0 0 0 0 0 0 0 0 0 0 0 0 0 0 0 0 0 0 0 0 0 0 0 0 0 0 0 0 0 0 0 0 0 0 0 0 0 0 0 0 0 0 0
0 0 0 0 0 0 0 0 0 0 0 0 0 0 0 0 0 0 0 0 0 0 0 0 0 0 0 0 0 0 0 0 0 0 0 0 0 0 0 0 0 0 0
0 0 0 0 0 0 0 0 0 0 0 0 0 0 0 0 0 0 0 0 0 0 0 0 0 0 0 0 0 0 0 0 0 0 0 0 0 0 0 0 0 0 0
0 0 0 0 0 0 0 0 0 0 0 0 0 0 0 0 0 0 0 0 0 0 0 0 0 0 0 0 0 0 0 0 0 0 0 0 0 0 0 0 0 0 0
0 0 0 0 0 0 0 0 0 0 0 0 0 0 0 0 0 0 0 0 0 0 0 0 0 0 0 0 0 0 0 0 0 0 0 0 0 0 0 0 0 0 0
0 0 0 0 0 0 0 0 0 0 0 0 0 0 0 0 0 0 0 0 0 0 0 0 0 0 0 0 0 0 0 0 0 0 0 0 0 0 0 0 0 0 0
0 0 0 0 0 0 0 0 0 0 0 0 0 0 0 0 0 0 0 0 0 0 0 0 0 0 0 0 0 0 0 0 0 0 0 0 0 0 0 0 0 0 0
0 0 0 0 0 0 0 0 0 0 0 0 0 0 0 0 0 0 0 0 0 0 0 0 0 0 0 0 0 0 0 0 0 0 0 0 0 0 0 0 0 0 0
0 0 0 0 0 0 0 0 0 0 0 0 0 0 0 0 0 0 0 0 0 0 0 0 0 0 0 0 0 0 0 0 0 0 0 0 0 0 0 0 0 0 0
0 0 0 0 0 0 0 0 0 0 0 0 0 0 0 0 0 0 0 0 0 0 0 0 0 0 0 0 0 0 0 0 0 0 0 0 0 0 0 0 0 0 0
0 0 0 0 0 0 0 0 0 0 0 0 0 0 0 0 0 0 0 0 0 0 0 0 0 0 0 0 0 0 0 0 0 0 0 0 0 0 0 0 0 0 0
0 0 0 0 0 0 0 0 0 0 0 0 0 0 0 0 0 0 0 0 0 0 0 0 0 0 0 0 0 0 0 0 0 0 0 0 0 0 0 0 0 0 0
0 0 0 0 0 0 0 0 0 0 0 0 0 0 0 0 0 0 0 0 0 0 0 0 0 0 0 0 0 0 0 0 0 0 0 0 0 0 0 0 0 0 0
0 0 0 0 0 0 0 0 0 0 0 0 0 0 0 0 0 0 0 0 0 0 0 0 0 0 0 0 0 0 0 0 0 0 0 0 0 0 0 0 0 0 0
0 0 0 0 0 0 0 0 0 0 0 0 0 0 0 0 0 0 0 0 0 0 0 0 0 0 0 0 0 0 0 0 0 0 0 0 0 0 0 0 0 0 0
0 0 0 0 0 0 0 0 0 0 0 0 0 0 0 0 0 0 0 0 0 0 0 0 0 0 0 0 0 0 0 0 0 0 0 0 0 0 0 0 0 0 0
Wind_Speed
8 7 9 9 9 9 10 13 13 12 10 9 9 8 7 6 5 5 7 8 7 6 5 3 3 3 3 3 2 2 0 0 1 2 3 4 2 1 1 0 1 1 0
6 5 6 8 9 10 10 12 13 13 11 9 8 7 6 5 5 5 6 7 7 7 5 5 4 4 3 3 2 2 1 0 1 1 1 4 4 2 1 1 0 1 1
7 5 6 7 8 9 10 10 12 12 12 10 7 6 5 4 4 5 5 6 7 7 6 5 5 4 4 3 3 3 2 1 0 1 2 1 2 3 3 2 1 1 1
5 5 6 7 8 8 9 9 10 12 12 12 11 12 9 7 6 6 5 6 7 7 7 6 6 5 4 4 3 3 2 2 1 0 1 1 2 0 3 4 2 2 3
4 5 6 7 7 7 8 8 9 10 11 12 12 12 8 6 6 7 8 6 6 7 7 6 6 5 4 4 4 3 2 2 2 1 1 0 0 1 2 4 4 3 3
4 5 5 5 6 6 7 7 9 9 10 11 12 12 11 10 10 10 9 7 5 5 7 7 6 5 4 5 4 3 3 2 1 1 1 2 1 1 1 3 4 4 4
4 5 6 6 7 8 8 7 9 9 11 12 12 12 11 11 12 11 10 9 6 5 7 6 6 5 5 5 4 4 3 3 2 2 2 1 2 1 1 2 3 4 4
4 4 5 6 7 9 9 9 9 9 10 11 11 10 10 9 8 9 9 9 7 6 8 7 7 7 6 5 4 3 3 3 3 3 2 2 2 2 2 2 2 4 4
5 5 6 6 8 9 9 9 10 9 10 11 10 9 10 9 9 9 8 7 7 7 9 8 7 7 6 6 5 3 4 3 3 3 3 2 2 2 2 2 3 3 4
6 6 6 7 7 8 9 9 9 10 9 10 9 8 9 9 9 9 9 9 9 9 10 8 8 7 6 6 5 4 4 4 3 3 3 3 3 3 3 3 3 4 5
6 6 6 7 7 8 9 9 9 9 9 10 9 9 8 9 9 9 9 9 8 10 10 9 8 8 7 6 5 5 5 5 4 4 4 5 4 3 3 3 4 4 5
6 6 7 7 7 8 8 8 8 9 9 9 9 9 8 9 9 9 9 9 10 9 9 8 8 7 7 6 6 5 5 5 5 5 5 5 4 5 5 4 5 5 6
6 6 7 7 8 8 8 8 8 8 9 9 9 9 9 10 10 9 9 10 10 9 8 8 8 7 7 6 5 5 5 5 5 5 5 6 5 6 5 5 6 5 6
8 8 7 7 8 8 8 9 9 9 9 9 9 10 10 10 10 9 9 9 10 9 9 8 7 7 6 6 5 4 4 4 4 5 5 6 6 7 7 6 6 5 5
8 8 8 7 8 8 8 9 9 9 9 9 9 9 9 9 9 9 9 9 9 9 8 7 7 6 6 6 6 5 5 5 5 6 6 7 10 12 11 8 6 6 5
6 7 8 8 8 9 9 9 9 9 9 9 9 9 9 9 9 9 9 9 8 7 7 7 7 6 5 9 11 8 5 5 6 7 7 8 10 14 18 20 18 13 9
5 7 8 8 8 8 9 9 9 8 9 9 8 9 9 9 9 9 9 9 8 7 7 7 7 6 7 11 12 12 7 6 6 7 7 7 8 12 8 12 17 15 18
6 6 6 6 6 7 7 8 8 9 9 8 8 9 9 9 8 9 9 8 7 7 6 6 6 5 7 11 12 12 7 6 7 7 7 8 8 8 9 7 7 7 8
5 5 5 6 6 7 8 8 8 8 8 8 8 9 9 9 9 9 8 6 6 5 5 6 6 5 6 10 11 11 4 5 7 7 8 8 8 14 17 10 8 8 8
6 5 5 6 6 6 8 9 8 8 8 8 8 8 8 9 8 8 6 5 5 5 5 4 5 5 5 9 11 11 4 5 6 6 7 12 13 16 18 9 7 9 8
7 6 6 6 5 6 8 8 7 7 7 7 7 7 7 7 7 6 5 5 4 4 4 4 4 5 6 8 11 12 5 5 6 5 5 6 15 18 19 16 9 13 14
7 7 7 6 5 7 8 8 7 6 8 8 8 7 7 6 6 6 5 5 5 4 4 3 4 3 4 6 9 13 13 10 6 6 5 6 16 19 20 15 16 22 20
7 6 7 7 6 6 8 8 7 8 8 8 7 7 7 5 5 5 5 4 4 3 3 3 3 3 3 5 11 13 14 15 9 6 13 16 19 19 14 17 22 18 8
7 7 8 8 6 6 7 8 8 8 8 8 7 6 6 5 4 3 3 3 3 3 3 3 4 4 3 3 3 4 6 10 9 8 12 18 19 15 16 16 12 7 7
6 7 7 8 8 8 8 7 7 8 8 8 6 5 4 4 3 3 3 3 4 5 4 4 4 4 5 7 10 7 5 4 6 8 5 5 6 6 6 6 6 5 5
7 8 8 9 8 8 8 7 6 7 8 7 5 4 3 3 2 2 0 2 3 5 7 7 7 6 10 13 14 15 16 17 17 12 6 7 7 7 6 6 6 5 5
Wind_Direction
229 204 187 176 171 171 165 166 169 175 171 171 174 175 176 167 162 162 165 166 166 168 162 155 155 143 148 159 147 129 104 18 41 357 319 305 263 177 150 50 13 358 26
240 205 177 169 170 171 170 168 171 175 176 175 174 170 163 161 158 155 162 164 164 161 159 157 154 146 140 134 130 125 116 87 93 92 355 341 341 352 339 346 348 1 9
228 203 179 175 172 175 176 175 174 174 173 165 158 152 141 134 147 160 165 166 161 157 155 158 148 145 145 148 142 135 139 144 108 114 120 94 299 321 314 303 324 351 341
211 186 178 179 179 178 171 173 172 171 170 165 167 167 169 168 171 164 161 161 158 153 152 149 144 144 143 142 145 137 138 133 152 103 122 165 165 136 314 315 323 343 326
186 181 180 182 175 165 163 167 168 169 168 169 170 173 172 166 151 153 157 158 152 149 149 147 144 146 144 141 136 132 135 141 152 146 129 326 7 201 212 284 305 318 303
180 173 171 161 156 151 153 160 165 170 169 171 174 178 174 167 159 161 163 160 153 150 152 148 146 146 141 139 140 140 143 145 143 154 164 169 186 222 221 257 287 294 288
163 164 162 159 156 153 158 166 171 173 172 175 179 183 177 169 166 165 165 161 158 159 161 151 151 147 143 142 141 146 158 165 169 189 201 196 205 205 212 249 278 290 294
152 154 157 159 157 159 165 173 178 176 176 178 182 182 174 168 166 165 163 165 163 161 156 154 154 150 148 148 150 157 171 172 183 202 201 205 229 218 210 216 252 297 295
150 152 157 161 161 165 173 179 180 179 179 180 181 179 171 166 163 160 157 158 155 152 153 156 154 152 152 156 159 170 181 179 192 201 209 214 225 223 223 216 198 215 274
151 157 165 167 165 167 171 178 180 179 177 178 177 173 168 163 158 155 157 155 152 151 153 157 156 156 159 164 166 173 183 184 196 196 209 227 228 228 224 221 222 213 230
161 168 168 166 163 163 169 178 179 173 174 174 169 164 164 159 155 156 157 154 151 153 157 158 158 161 166 170 172 183 185 194 207 208 214 230 229 229 232 229 230 233 231
164 165 162 162 164 167 172 176 176 172 173 169 165 164 159 155 156 158 157 154 153 156 158 157 159 165 170 174 179 190 191 197 212 220 223 235 235 236 235 234 237 239 236
168 164 165 170 173 173 175 176 175 171 168 164 163 161 160 160 161 160 158 155 154 156 157 158 164 169 172 177 185 190 195 204 214 219 225 235 237 246 244 242 244 246 252
175 175 178 179 177 175 177 177 176 169 166 164 164 165 167 166 163 160 158 157 156 158 161 163 166 169 172 178 185 190 199 214 227 231 234 237 238 244 247 250 250 251 259
180 180 179 178 176 175 176 175 174 170 166 165 168 169 165 161 159 158 157 155 156 159 159 160 164 167 172 183 186 192 204 220 238 245 244 244 245 249 253 254 248 245 253
188 180 176 176 177 177 175 172 171 167 163 166 168 162 159 159 159 157 154 152 154 155 158 166 170 177 187 196 199 198 205 217 230 243 248 250 253 258 264 267 267 260 256
185 179 176 178 176 174 171 171 167 159 162 164 161 159 158 159 159 155 152 157 161 161 166 173 177 187 198 203 212 216 212 220 232 241 249 258 258 265 256 266 271 271 271
173 171 165 165 163 159 158 155 154 156 158 159 159 158 156 156 154 156 161 163 164 167 172 180 183 190 205 211 221 226 224 230 240 244 248 254 258 256 264 255 254 251 257
147 142 143 145 146 148 148 144 146 148 154 159 159 157 156 156 158 162 165 163 162 168 173 177 184 196 215 220 225 228 220 234 246 249 252 257 260 271 278 274 265 264 261
110 113 115 118 129 138 136 138 144 148 158 157 152 150 151 154 159 161 160 156 159 166 169 181 193 205 219 228 231 231 219 237 249 252 254 264 272 279 282 275 265 270 270
109 107 106 111 123 127 127 133 137 148 144 134 134 137 142 146 149 149 148 149 152 159 176 195 210 217 224 234 238 241 230 230 245 252 254 259 278 282 283 282 273 275 282
115 112 107 104 105 116 123 125 131 129 122 123 126 129 132 136 141 144 149 153 157 170 191 207 228 235 235 237 247 254 257 258 251 255 256 265 281 282 284 285 282 286 290
123 116 116 108 100 106 118 122 124 120 119 119 122 124 124 128 138 147 154 159 164 176 199 208 229 243 242 252 258 264 268 271 270 266 274 280 284 287 287 285 287 287 282
126 124 120 116 110 104 106 115 118 118 119 121 123 125 129 134 137 139 149 160 176 189 204 219 234 245 251 252 256 258 270 275 278 279 281 285 286 285 284 285 284 272 261
126 124 124 121 115 108 106 110 116 119 119 119 121 122 125 130 134 142 165 178 198 197 205 218 222 237 253 256 268 276 270 265 266 284 276 271 273 265 265 267 266 262 266
127 124 122 119 115 112 110 109 112 116 120 121 122 123 124 127 134 145 181 238 234 247 249 252 255 259 267 282 285 287 289 291 291 291 280 276 273 274 274 275 271 265 261